Princeton, MN

7:09 PM CST on February 27, 2017 (GMT -0600)
Princeton Municipal

Weather History for KPNM - January, 2013

Change the Weather History Date:

Monday, January 14, 2013

  Actual Average Record
Temperature  
Mean Temperature 4 °F -  
Max Temperature 10 °F 18 °F 33 °F (2001)
Min Temperature -2 °F 2 °F -20 °F (1997)
Degree Days  
Heating Degree Days 61    
Moisture  
Dew Point -2 °F    
Average Humidity 76    
Maximum Humidity 92    
Minimum Humidity 57    
Precipitation  
Precipitation 0.00 in - - ()
Sea Level Pressure  
Sea Level Pressure 30.29 in    
Wind  
Wind Speed 3 mph (SSW)    
Max Wind Speed 9 mph    
Max Gust Speed -    
Visibility 10 miles    
Events      
Averages and records for this station are not official NWS values.
T = Trace of Precipitation, MM = Missing Value Source: NWS Daily Summary

Daily Weather History Graph

Daily Weather History Graph

Search for Another Location

Airport or City:

Trip Planner

Search our weather history database for the weather conditions in past years. The results will help you decide how hot, cold, wet, or windy it might be!

Date:

Astronomy

Jan. 14, 2013 Rise Set
Actual Time 7:51 AM CST 4:56 PM CST
Civil Twilight 7:18 AM CST 5:29 PM CST
Nautical Twilight 6:41 AM CST 6:06 PM CST
Astronomical Twilight 6:05 AM CST 6:41 PM CST
Moon 9:13 AM CST (1/14) 8:56 PM CST (1/14)
Length of Visible Light 10h 11m
Length of Day
9h 05m
Waxing Crescent, 11% of the Moon is Illuminated
Jan 14
Waxing Crescent
Jan 18
First Quarter
Jan 26
Full
Feb 3
Last Quarter
Feb 10
New

Hourly Weather History & Observations

Time (CST) Temp. Windchill Dew Point Humidity Pressure Visibility Wind Dir Wind Speed Gust Speed Precip Events Conditions
12:11 AM 1.4 °F -6.2 °F -2.2 °F 85% 30.19 in 10.0 mi SW 3.5 mph - N/A   Clear
12:32 AM 1.4 °F -6.2 °F -2.2 °F 85% 30.19 in 10.0 mi SW 3.5 mph - N/A   Clear
12:51 AM 1.4 °F - -2.2 °F 85% 30.20 in 10.0 mi Calm Calm - N/A   Clear
1:11 AM 1.4 °F - -2.2 °F 85% 30.20 in 10.0 mi Calm Calm - N/A   Clear
1:31 AM 1.4 °F - -2.2 °F 85% 30.20 in 10.0 mi Calm Calm - N/A   Clear
1:51 AM 1.4 °F - -2.2 °F 85% 30.21 in 10.0 mi Calm Calm - N/A   Clear
2:11 AM 1.4 °F -6.2 °F -2.2 °F 85% 30.21 in 10.0 mi SW 3.5 mph - N/A   Clear
2:51 AM 1.4 °F -8.3 °F -2.2 °F 85% 30.23 in 10.0 mi SW 4.6 mph - N/A   Clear
3:11 AM 1.4 °F - -2.2 °F 85% 30.23 in 10.0 mi Calm Calm - N/A   Clear
3:31 AM -0.4 °F - -2.2 °F 92% 30.23 in 10.0 mi Calm Calm - N/A   Clear
3:51 AM -0.4 °F -8.3 °F -4.0 °F 85% 30.23 in 10.0 mi WSW 3.5 mph - N/A   Clear
4:11 AM 1.4 °F -6.2 °F -2.2 °F 85% 30.23 in 10.0 mi WSW 3.5 mph - N/A   Clear
4:31 AM -0.4 °F -10.4 °F -4.0 °F 85% 30.24 in 10.0 mi WSW 4.6 mph - N/A   Clear
4:51 AM 1.4 °F -9.9 °F -4.0 °F 78% 30.23 in 10.0 mi West 5.8 mph - N/A   Clear
5:11 AM -0.4 °F -12.0 °F -5.8 °F 78% 30.23 in 10.0 mi West 5.8 mph - N/A   Clear
5:31 AM -0.4 °F -10.4 °F -4.0 °F 85% 30.25 in 10.0 mi WSW 4.6 mph - N/A   Clear
6:11 AM -0.4 °F -8.3 °F -5.8 °F 78% 30.27 in 10.0 mi SSW 3.5 mph - N/A   Clear
6:31 AM -0.4 °F - -5.8 °F 78% 30.29 in 10.0 mi Calm Calm - N/A   Clear
6:51 AM -2.2 °F - -5.8 °F 85% 30.29 in 10.0 mi Calm Calm - N/A   Clear
7:11 AM -2.2 °F - -5.8 °F 85% 30.30 in 10.0 mi Calm Calm - N/A   Clear
7:31 AM -2.2 °F - -5.8 °F 85% 30.31 in 10.0 mi Calm Calm - N/A   Clear
7:51 AM -2.2 °F -10.4 °F -5.8 °F 85% 30.32 in 10.0 mi SW 3.5 mph - N/A   Clear
8:11 AM -2.2 °F -10.4 °F -5.8 °F 85% 30.33 in 10.0 mi WSW 3.5 mph - N/A   Clear
8:31 AM -2.2 °F -10.4 °F -5.8 °F 85% 30.33 in 10.0 mi WSW 3.5 mph - N/A   Clear
8:51 AM -0.4 °F -10.4 °F -5.8 °F 78% 30.34 in 10.0 mi SW 4.6 mph - N/A   Clear
9:11 AM -0.4 °F -13.4 °F -4.0 °F 85% 30.35 in 10.0 mi WSW 6.9 mph - N/A   Clear
9:31 AM 1.4 °F -8.3 °F -4.0 °F 78% 30.35 in 10.0 mi West 4.6 mph - N/A   Clear
9:51 AM 1.4 °F -6.2 °F -2.2 °F 85% 30.35 in 10.0 mi West 3.5 mph - N/A   Clear
10:11 AM 3.2 °F -4.2 °F -2.2 °F 78% 30.36 in 10.0 mi WSW 3.5 mph - N/A   Mostly Cloudy
10:32 AM 3.2 °F -4.2 °F -2.2 °F 78% 30.37 in 10.0 mi West 3.5 mph - N/A   Scattered Clouds
10:51 AM 3.2 °F -4.2 °F -2.2 °F 78% 30.37 in 10.0 mi WSW 3.5 mph - N/A   Clear
11:11 AM 5.0 °F -5.6 °F -2.2 °F 72% 30.37 in 10.0 mi SW 5.8 mph - N/A   Clear
11:31 AM 6.8 °F -3.5 °F -2.2 °F 67% 30.36 in 10.0 mi SW 5.8 mph - N/A   Clear
11:52 AM 6.8 °F -5.9 °F -2.2 °F 67% 30.35 in 10.0 mi West 8.1 mph - N/A   Clear
12:11 PM 8.6 °F -2.6 °F -2.2 °F 62% 30.35 in 10.0 mi WSW 6.9 mph - N/A   Clear
12:31 PM 8.6 °F -1.3 °F -2.2 °F 62% 30.34 in 10.0 mi WSW 5.8 mph - N/A   Clear
12:52 PM 8.6 °F -4.7 °F -2.2 °F 62% 30.33 in 10.0 mi West 9.2 mph - N/A   Clear
1:11 PM 8.6 °F -4.7 °F -0.4 °F 67% 30.33 in 10.0 mi West 9.2 mph - N/A   Clear
1:31 PM 8.6 °F -2.6 °F -2.2 °F 62% 30.33 in 10.0 mi WSW 6.9 mph - N/A   Clear
2:11 PM 10.4 °F -0.4 °F -2.2 °F 57% 30.33 in 10.0 mi WSW 6.9 mph - N/A   Clear
2:52 PM 10.4 °F 4.0 °F -0.4 °F 62% 30.33 in 10.0 mi SW 3.5 mph - N/A   Clear
3:11 PM 10.4 °F 4.0 °F -0.4 °F 62% 30.32 in 10.0 mi SSW 3.5 mph - N/A   Clear
3:31 PM 10.4 °F 0.8 °F -0.4 °F 62% 30.32 in 10.0 mi South 5.8 mph - N/A   Clear
3:51 PM 8.6 °F -1.3 °F -0.4 °F 67% 30.32 in 10.0 mi South 5.8 mph - N/A   Clear
4:11 PM 8.6 °F 0.1 °F -0.4 °F 67% 30.32 in 10.0 mi SSE 4.6 mph - N/A   Clear
4:32 PM 8.6 °F 0.1 °F -0.4 °F 67% 30.32 in 10.0 mi South 4.6 mph - N/A   Clear
4:51 PM 8.6 °F - -0.4 °F 67% 30.32 in 10.0 mi Calm Calm - N/A   Clear
5:11 PM 6.8 °F -3.5 °F -0.4 °F 72% 30.32 in 10.0 mi SSE 5.8 mph - N/A   Mostly Cloudy
5:32 PM 8.6 °F 0.1 °F -0.4 °F 67% 30.33 in 10.0 mi South 4.6 mph - N/A   Overcast
5:51 PM 8.6 °F -1.3 °F -0.4 °F 67% 30.32 in 10.0 mi South 5.8 mph - N/A   Overcast
6:11 PM 8.6 °F -1.3 °F -0.4 °F 67% 30.33 in 10.0 mi South 5.8 mph - N/A   Overcast
6:32 PM 8.6 °F 0.1 °F -0.4 °F 67% 30.31 in 10.0 mi SSE 4.6 mph - N/A   Overcast
6:51 PM 8.6 °F 2.0 °F -0.4 °F 67% 30.32 in 10.0 mi South 3.5 mph - N/A   Overcast
7:12 PM 8.6 °F 2.0 °F -0.4 °F 67% 30.31 in 10.0 mi South 3.5 mph - N/A   Overcast
7:51 PM 8.6 °F -3.7 °F 1.4 °F 73% 30.28 in 10.0 mi SE 8.1 mph - N/A   Overcast
8:11 PM 8.6 °F 0.1 °F 1.4 °F 73% 30.29 in 10.0 mi South 4.6 mph - N/A   Overcast
8:31 PM 8.6 °F 0.1 °F 1.4 °F 73% 30.29 in 10.0 mi South 4.6 mph - N/A   Overcast
8:51 PM 8.6 °F 0.1 °F 1.4 °F 73% 30.28 in 10.0 mi South 4.6 mph - N/A   Overcast
9:11 PM 8.6 °F 0.1 °F 1.4 °F 73% 30.29 in 10.0 mi South 4.6 mph - N/A   Overcast
9:31 PM 8.6 °F 2.0 °F 1.4 °F 73% 30.28 in 10.0 mi South 3.5 mph - N/A   Overcast
10:11 PM 8.6 °F 0.1 °F 1.4 °F 73% 30.25 in 10.0 mi ESE 4.6 mph - N/A   Overcast
10:31 PM 8.6 °F 0.1 °F 3.2 °F 79% 30.25 in 10.0 mi SE 4.6 mph - N/A   Overcast
10:51 PM 8.6 °F - 3.2 °F 79% 30.24 in 10.0 mi Calm Calm - N/A   Overcast
11:11 PM 8.6 °F 2.0 °F 3.2 °F 79% 30.24 in 10.0 mi SE 3.5 mph - N/A   Overcast
11:31 PM 10.4 °F 2.2 °F 3.2 °F 73% 30.23 in 10.0 mi SE 4.6 mph - N/A   Overcast
11:51 PM 8.6 °F -2.6 °F 3.2 °F 79% 30.23 in 10.0 mi SE 6.9 mph - N/A   Mostly Cloudy